EW1958 Weather Reports


time (UTC)temp
F
wind
direction
speed
knots
gust
knots
rain 1hr
in
rain 24hr
in
rain mn
in
humidity
%
barometer
mb
20260507012510 56 133 0.0 0.0 0.00 0.00 0.00 81 1022.8
20260507012008 56 133 0.0 0.0 0.00 0.00 0.00 79 1022.8
20260507011508 56 133 0.0 0.0 0.00 0.00 0.00 79 1022.8
20260507011220 56 133 0.0 0.0 0.00 0.00 0.00 80 1022.9
20260507010502 56 133 0.0 0.0 0.00 0.00 0.00 79 1022.9
20260507010237 56 133 0.0 0.0 0.00 0.00 0.00 80 1023.0
20260507010001 56 133 0.0 0.0 0.00 0.00 0.00 80 1023.0
20260507005737 56 133 0.0 0.0 0.00 0.00 0.00 80 1023.0
20260507005502 56 133 0.0 0.0 0.00 0.00 0.00 80 1023.0
20260507005000 56 133 0.0 0.0 0.00 0.00 0.00 79 1023.0
20260507004502 56 133 0.0 0.9 0.00 0.00 0.00 78 1022.9
20260507004233 56 133 0.0 0.9 0.00 0.00 0.00 78 1023.0
20260507003956 56 133 0.0 0.9 0.00 0.00 0.00 78 1023.0
20260507003740 56 125 0.0 1.7 0.00 0.00 0.00 78 1023.0
20260507003717 56 124 0.0 1.7 0.00 0.00 0.00 78 1023.0
20260507002957 56 137 0.0 1.7 0.00 0.00 0.00 77 1023.0
20260507002501 57 108 0.0 1.7 0.00 0.00 0.00 77 1023.0
20260507002455 57 108 0.0 1.7 0.00 0.00 0.00 77 1023.0
20260507002001 57 105 0.0 1.7 0.00 0.00 0.00 77 1023.0
20260507001956 57 105 0.0 1.7 0.00 0.00 0.00 77 1023.0
20260507001502 57 180 0.0 1.7 0.00 0.00 0.00 76 1023.0
20260507001457 57 180 0.0 1.7 0.00 0.00 0.00 76 1023.0
20260507001231 57 134 0.0 1.7 0.00 0.00 0.00 78 1022.9
20260507001206 57 134 0.0 1.7 0.00 0.00 0.00 78 1022.9
20260507000501 57 121 0.0 1.7 0.00 0.00 0.00 77 1022.9
20260507000453 57 121 0.0 1.7 0.00 0.00 0.00 78 1022.9
20260507000002 57 119 0.0 1.7 0.00 0.00 0.00 77 1022.9
20260506235952 57 146 0.0 1.7 0.00 0.00 0.00 77 1022.9
20260506235500 57 355 0.0 1.7 0.00 0.00 0.00 77 1022.9
20260506235453 57 306 0.0 1.7 0.00 0.00 0.00 77 1022.9
20260506235244 56 121 0.0 1.7 0.00 0.00 0.00 78 1022.8
20260506235001 56 121 0.0 1.7 0.00 0.00 0.00 78 1022.8
20260506234449 56 142 0.0 1.7 0.00 0.00 0.00 77 1023.0
20260506233947 56 135 0.0 1.7 0.00 0.00 0.00 78 1023.0
20260506233731 56 125 0.0 1.7 0.00 0.00 0.00 78 1022.9
20260506233444 56 125 0.0 1.7 0.00 0.00 0.00 78 1022.9
20260506232942 56 130 0.0 1.7 0.00 0.00 0.00 78 1023.0
20260506232719 57 145 0.0 1.7 0.00 0.00 0.00 78 1023.1
20260506232653 57 142 0.0 1.7 0.00 0.00 0.00 78 1023.1
20260506231956 57 153 0.0 1.7 0.00 0.00 0.00 79 1023.0
20260506231940 57 152 0.0 1.7 0.00 0.00 0.00 79 1023.0
20260506231716 57 153 0.0 1.7 0.00 0.00 0.00 79 1023.0
20260506231654 57 152 0.0 1.7 0.00 0.00 0.00 79 1023.0
20260506230940 57 152 0.0 1.7 0.00 0.00 0.00 80 1023.0
20260506230730 57 152 0.0 1.7 0.00 0.00 0.00 79 1023.0
20260506230437 57 152 0.0 1.7 0.00 0.00 0.00 79 1023.0
20260506230216 57 153 0.0 1.7 0.00 0.00 0.00 80 1023.1
20260506230154 57 152 0.0 1.7 0.00 0.00 0.00 80 1023.1
20260506225438 56 153 0.0 1.7 0.00 0.00 0.00 80 1023.0
20260506224956 56 152 0.0 1.7 0.00 0.00 0.00 79 1023.1
20260506224935 56 121 0.0 1.7 0.00 0.00 0.00 79 1023.1
20260506224724 56 139 0.0 1.7 0.00 0.00 0.00 80 1023.1
20260506224437 56 139 0.0 1.7 0.00 0.00 0.00 80 1023.1
20260506223936 56 117 0.0 1.7 0.00 0.00 0.00 80 1023.1
20260506223435 56 122 0.0 1.7 0.00 0.00 0.00 80 1023.1
20260506223201 56 134 0.0 0.9 0.00 0.00 0.00 80 1023.1
20260506222942 56 104 0.0 1.7 0.00 0.00 0.00 81 1023.2
20260506222936 56 134 0.0 0.9 0.00 0.00 0.00 80 1023.1
20260506221932 56 104 0.0 1.7 0.00 0.00 0.00 82 1023.2
20260506221431 56 104 0.0 1.7 0.00 0.00 0.00 82 1023.3
20260506220932 56 134 0.0 1.7 0.00 0.00 0.00 82 1023.4
20260506220708 56 145 0.0 1.7 0.00 0.00 0.00 82 1023.3
20260506220649 56 145 0.0 1.7 0.00 0.00 0.00 83 1023.3
20260506215928 56 141 0.0 1.7 0.00 0.00 0.00 82 1023.3
20260506215725 55 131 0.0 1.7 0.00 0.00 0.00 83 1023.3
20260506215447 55 145 0.0 2.6 0.00 0.00 0.00 84 1023.3
20260506215443 55 136 0.0 2.6 0.00 0.00 0.00 84 1023.3
20260506215435 55 134 0.0 1.7 0.00 0.00 0.00 83 1023.3
20260506214446 55 136 0.0 2.6 0.00 0.00 0.00 82 1023.3
20260506214429 55 137 0.0 2.6 0.00 0.00 0.00 82 1023.3
20260506213949 55 133 0.0 1.7 0.00 0.00 0.00 85 1023.3
20260506213939 55 126 0.0 1.7 0.00 0.00 0.00 84 1023.4
20260506213648 55 117 0.0 1.7 0.00 0.00 0.00 85 1023.3
20260506212943 55 133 0.0 1.7 0.00 0.00 0.00 86 1023.4
20260506212929 55 138 0.0 1.7 0.00 0.00 0.00 86 1023.4
20260506212448 55 127 0.0 1.7 0.00 0.00 0.00 85 1023.4
20260506212207 55 209 0.0 1.7 0.00 0.00 0.00 88 1023.4
20260506212147 55 142 0.0 1.7 0.00 0.00 0.00 87 1023.4
20260506210929 55 209 0.0 1.7 0.00 0.00 0.00 89 1023.4
20260506210429 55 209 0.0 1.7 0.00 0.00 0.00 88 1023.4
20260506205938 56 209 0.0 1.7 0.00 0.00 0.00 87 1023.3
20260506205930 55 209 0.0 1.7 0.00 0.00 0.00 87 1023.3
20260506205439 56 209 0.0 1.7 0.00 0.00 0.00 88 1023.2
20260506205429 56 209 0.0 1.7 0.00 0.00 0.00 87 1023.2
20260506205227 56 209 0.0 1.7 0.00 0.00 0.00 87 1023.4
20260506205222 56 209 0.0 0.9 0.00 0.00 0.00 87 1023.3
20260506204938 56 209 0.0 1.7 0.00 0.00 0.00 87 1023.3
20260506204434 56 209 0.0 0.9 0.00 0.00 0.00 87 1023.3
20260506203428 56 209 0.0 1.7 0.00 0.00 0.00 87 1023.3
20260506203141 56 209 0.0 1.7 0.00 0.00 0.00 86 1023.3
20260506202444 57 209 0.0 1.7 0.00 0.00 0.00 84 1023.3
20260506202440 57 209 0.0 1.7 0.00 0.00 0.00 83 1023.3
20260506202430 56 209 0.0 1.7 0.00 0.00 0.00 84 1023.3
20260506201429 57 209 0.0 1.7 0.00 0.00 0.00 83 1023.3
20260506200929 57 177 0.0 1.7 0.00 0.00 0.00 83 1023.2
20260506200708 57 145 0.0 1.7 0.00 0.00 0.00 82 1023.2
20260506200430 57 145 0.0 1.7 0.00 0.00 0.00 82 1023.2
20260506195928 57 282 0.0 1.7 0.00 0.00 0.00 82 1023.1
20260506195718 57 282 0.0 1.7 0.00 0.00 0.00 82 1022.9
20260506195438 57 282 0.0 1.7 0.00 0.00 0.00 83 1023.0
20260506194429 57 282 0.0 1.7 0.00 0.00 0.00 82 1022.8
20260506193929 57 282 0.0 1.7 0.00 0.00 0.00 83 1022.8
20260506193430 57 153 0.0 1.7 0.00 0.00 0.00 83 1022.8
20260506192928 57 156 0.0 1.7 0.00 0.00 0.00 83 1022.9
20260506192429 57 155 0.0 1.7 0.00 0.00 0.00 84 1022.9
20260506191928 57 227 0.0 1.7 0.00 0.00 0.00 85 1022.9
20260506191429 56 310 0.0 1.7 0.00 0.00 0.00 84 1022.8
20260506191206 56 305 0.0 1.7 0.00 0.00 0.00 85 1022.8
20260506190930 56 305 0.0 1.7 0.00 0.00 0.00 85 1022.8
20260506190429 56 317 0.0 1.7 0.00 0.00 0.00 86 1022.8
20260506185929 56 67 0.0 1.7 0.00 0.00 0.00 85 1022.8
20260506185428 55 327 0.0 1.7 0.00 0.00 0.00 87 1022.9
20260506184930 55 92 0.0 1.7 0.00 0.00 0.00 87 1023.0
20260506184429 55 92 0.0 1.7 0.00 0.00 0.00 88 1022.8
20260506184205 55 92 0.0 1.7 0.00 0.00 0.00 88 1022.8
20260506183929 55 92 0.0 1.7 0.00 0.00 0.00 88 1022.8
20260506183429 55 92 0.0 1.7 0.00 0.00 0.00 87 1022.8
20260506182929 55 92 0.0 1.7 0.00 0.00 0.00 88 1022.8
20260506182702 55 150 0.0 1.7 0.00 0.00 0.00 87 1022.8
20260506182429 55 150 0.0 1.7 0.00 0.00 0.00 87 1022.8
20260506181929 55 132 0.0 1.7 0.00 0.00 0.00 89 1022.8
20260506181429 55 129 0.0 1.7 0.00 0.00 0.00 89 1022.9
20260506180927 55 129 0.0 2.6 0.00 0.00 0.00 90 1022.7
20260506180428 55 129 0.0 2.6 0.00 0.00 0.00 89 1022.7
20260506175928 55 129 0.0 2.6 0.00 0.00 0.00 90 1022.5
20260506175425 55 129 0.0 2.6 0.00 0.00 0.00 89 1022.3
20260506175157 55 133 0.0 1.7 0.00 0.00 0.00 91 1022.3
20260506174925 55 133 0.0 1.7 0.00 0.00 0.00 91 1022.3
20260506174425 55 133 0.0 1.7 0.00 0.00 0.00 91 1022.4
20260506174136 55 133 0.0 1.7 0.00 0.00 0.00 93 1022.3
20260506173658 54 133 0.0 1.7 0.00 0.00 0.00 93 1022.6
20260506173421 54 133 0.0 1.7 0.00 0.00 0.00 93 1022.6
20260506173132 54 133 0.0 1.7 0.00 0.00 0.00 93 1022.8
20260506172428 54 133 0.0 0.9 0.00 0.00 0.00 93 1022.7
20260506172418 54 133 0.0 1.7 0.00 0.00 0.00 93 1022.7
20260506171414 54 133 0.0 0.0 0.00 0.00 0.00 93 1022.7
20260506171146 54 133 0.0 0.0 0.00 0.00 0.00 93 1022.7
20260506170911 54 133 0.0 0.0 0.00 0.00 0.00 93 1022.7
20260506170647 54 133 0.0 1.7 0.00 0.00 0.00 92 1022.6
20260506170410 54 133 0.0 1.7 0.00 0.00 0.00 92 1022.6
20260506165909 54 133 0.0 1.7 0.00 0.00 0.00 92 1022.7
20260506165413 54 133 0.0 0.9 0.00 0.00 0.00 92 1022.5
20260506164906 54 128 0.0 1.7 0.00 0.00 0.00 92 1022.4
20260506164403 54 128 0.0 1.7 0.00 0.00 0.00 92 1022.5
20260506164116 54 128 0.0 1.7 0.00 0.00 0.00 93 1022.5
20260506163416 54 128 0.0 0.9 0.00 0.00 0.00 93 1022.3
20260506163405 54 128 0.0 1.7 0.00 0.00 0.00 93 1022.3
20260506163112 54 128 0.0 0.9 0.00 0.00 0.00 93 1022.3
20260506162401 54 128 0.0 0.0 0.00 0.00 0.00 93 1022.1
20260506161902 54 128 0.0 1.7 0.00 0.00 0.00 93 1022.2
20260506161401 54 128 0.0 1.7 0.00 0.00 0.00 93 1022.2
20260506160901 54 128 0.0 1.7 0.00 0.00 0.00 93 1022.1
20260506160400 54 128 0.0 1.7 0.00 0.00 0.00 92 1022.1
20260506155859 54 122 0.0 1.7 0.00 0.00 0.00 93 1021.9
20260506155424 54 121 0.0 1.7 0.00 0.00 0.00 93 1022.0
20260506155419 54 121 0.0 1.7 0.00 0.00 0.00 93 1022.0
20260506155408 54 121 0.0 0.0 0.00 0.00 0.00 93 1021.9
20260506154858 54 121 0.0 1.7 0.00 0.00 0.00 93 1022.0
20260506153856 54 121 0.0 0.9 0.00 0.00 0.00 92 1022.0
20260506153355 54 121 0.0 0.0 0.00 0.00 0.00 92 1022.2
20260506153107 53 122 0.0 0.9 0.00 0.00 0.00 92 1022.3
20260506152354 53 122 0.0 0.9 0.00 0.00 0.00 92 1022.3
20260506151851 53 122 0.0 0.0 0.00 0.00 0.00 92 1022.2
20260506151349 53 122 0.0 0.9 0.00 0.00 0.00 92 1022.1
20260506150848 53 122 0.0 0.9 0.00 0.00 0.00 92 1022.1
20260506150344 53 122 0.0 0.9 0.00 0.00 0.00 92 1022.0
20260506150100 53 122 0.0 1.7 0.00 0.00 0.00 91 1021.9
20260506145617 53 122 0.0 1.7 0.00 0.00 0.00 92 1021.9
20260506145342 53 122 0.0 1.7 0.00 0.00 0.00 92 1021.9
20260506145051 53 122 0.0 1.7 0.00 0.00 0.00 92 1022.0
20260506144331 53 122 0.0 1.7 0.00 0.00 0.00 92 1022.0
20260506144047 53 122 0.0 1.7 0.00 0.00 0.00 92 1022.0
20260506143329 53 122 0.0 1.7 0.00 0.00 0.00 91 1022.0
20260506143043 53 122 0.0 0.0 0.00 0.00 0.00 92 1021.8
20260506142540 53 122 0.0 0.0 0.00 0.00 0.00 92 1021.9
20260506141829 53 122 0.0 0.0 0.00 0.00 0.00 92 1021.9
20260506141541 53 122 0.0 0.0 0.00 0.00 0.00 92 1021.9
20260506140830 53 122 0.0 0.0 0.00 0.00 0.00 92 1021.9
20260506140604 53 122 0.0 0.9 0.00 0.00 0.00 92 1021.9
20260506140329 53 122 0.0 0.9 0.00 0.00 0.00 92 1021.9
20260506140040 53 122 0.0 0.9 0.00 0.00 0.00 92 1021.8
20260506135334 53 122 0.0 0.0 0.00 0.00 0.00 92 1021.9
20260506134830 53 122 0.0 0.0 0.00 0.00 0.00 92 1021.9
20260506134328 53 122 0.0 0.0 0.00 0.00 0.00 92 1021.9
20260506133829 53 122 0.0 0.0 0.00 0.00 0.00 92 1021.7
20260506133327 53 122 0.0 1.7 0.00 0.00 0.00 92 1021.8
20260506132826 53 122 0.0 1.7 0.00 0.00 0.00 92 1021.7
20260506132327 53 122 0.0 0.0 0.00 0.00 0.00 92 1021.8
20260506131825 53 122 0.0 0.0 0.00 0.00 0.00 92 1021.8
20260506131324 53 122 0.0 1.7 0.00 0.00 0.00 92 1021.5
20260506130817 53 122 0.0 1.7 0.00 0.00 0.00 92 1021.5
20260506130528 53 122 0.0 0.9 0.00 0.00 0.00 92 1021.1
20260506125815 53 122 0.0 0.0 0.00 0.00 0.00 92 1021.2
20260506125315 53 122 0.0 0.0 0.00 0.00 0.00 92 1021.4
20260506125026 53 122 0.0 0.0 0.00 0.00 0.00 92 1021.2
20260506124530 53 122 0.0 0.0 0.00 0.00 0.00 92 1021.3
20260506124027 53 122 0.0 0.0 0.00 0.00 0.00 92 1021.3
20260506123314 53 122 0.0 0.0 0.00 0.00 0.00 92 1021.1
20260506122836 53 122 0.0 0.9 0.00 0.00 0.00 92 1021.1
20260506122825 53 122 0.0 0.9 0.00 0.00 0.00 92 1021.1
20260506122531 53 122 0.0 0.9 0.00 0.00 0.00 92 1021.1
20260506121813 52 122 0.0 0.0 0.00 0.00 0.00 93 1021.1
20260506121310 52 122 0.0 0.0 0.00 0.00 0.00 93 1021.1
20260506120818 52 122 0.0 0.0 0.00 0.00 0.00 93 1021.1
20260506120523 52 122 0.0 0.0 0.00 0.00 0.00 93 1021.1
20260506115808 52 122 0.0 0.0 0.00 0.00 0.00 93 1021.0
20260506115309 52 122 0.0 0.0 0.00 0.00 0.00 93 1021.0
20260506114809 52 122 0.0 0.0 0.00 0.00 0.00 93 1021.1
20260506114308 52 122 0.0 0.0 0.00 0.00 0.00 93 1021.0
20260506114018 52 122 0.0 0.0 0.00 0.00 0.00 93 1020.9
20260506113521 52 122 0.0 0.0 0.00 0.00 0.00 93 1020.9
20260506112802 52 122 0.0 0.0 0.00 0.00 0.00 93 1020.8
20260506112301 52 122 0.0 1.7 0.00 0.00 0.00 94 1020.8
20260506111803 52 122 0.0 1.7 0.00 0.00 0.00 94 1020.7
20260506111518 52 122 0.0 1.7 0.00 0.00 0.00 94 1020.8
20260506110800 52 122 0.0 0.0 0.00 0.00 0.00 95 1020.7
20260506110301 52 122 0.0 0.0 0.00 0.00 0.00 95 1020.7
20260506105802 52 122 0.0 0.0 0.00 0.00 0.00 95 1020.6
20260506105533 52 122 0.0 0.0 0.00 0.00 0.00 95 1020.5
20260506105259 52 122 0.0 0.0 0.00 0.00 0.00 95 1020.5
20260506104759 52 122 0.0 0.0 0.00 0.00 0.00 96 1020.5
20260506104258 52 122 0.0 0.0 0.00 0.00 0.00 96 1020.5
20260506103800 52 122 0.0 0.0 0.00 0.00 0.00 96 1020.4
20260506103257 52 122 0.0 0.0 0.00 0.00 0.00 96 1020.4
20260506102755 51 122 0.0 0.0 0.00 0.00 0.00 96 1020.5
20260506102254 51 122 0.0 0.0 0.00 0.00 0.00 96 1020.4
20260506101803 51 122 0.0 0.0 0.00 0.00 0.00 96 1020.3
20260506101253 51 122 0.0 0.0 0.00 0.00 0.00 96 1020.3
20260506100752 51 122 0.0 0.0 0.00 0.00 0.00 96 1020.2
20260506100252 51 122 0.0 0.0 0.00 0.00 0.00 96 1020.2
20260506095753 51 122 0.0 0.0 0.00 0.00 0.00 95 1020.1
20260506095252 51 122 0.0 0.0 0.00 0.00 0.00 95 1020.0
20260506094811 51 122 0.0 0.0 0.00 0.00 0.00 95 1020.0
20260506094802 51 122 0.0 0.0 0.00 0.00 0.00 95 1020.0
20260506094506 51 122 0.0 0.0 0.00 0.00 0.00 95 1020.0
20260506093750 51 122 0.0 0.0 0.00 0.00 0.00 95 1020.1
20260506093251 50 122 0.0 0.0 0.00 0.00 0.00 95 1020.0
20260506093005 50 122 0.0 0.0 0.00 0.00 0.00 95 1020.0
20260506092508 50 122 0.0 0.0 0.00 0.00 0.00 95 1019.9
20260506091751 50 122 0.0 0.0 0.00 0.00 0.00 95 1019.9
20260506091251 50 122 0.0 0.0 0.00 0.00 0.00 95 1019.8
20260506090752 50 122 0.0 0.0 0.00 0.00 0.00 95 1019.9
20260506090252 50 122 0.0 0.0 0.00 0.00 0.00 95 1019.8
20260506085751 50 122 0.0 0.0 0.00 0.00 0.00 94 1019.8
20260506085251 50 122 0.0 0.0 0.00 0.00 0.00 94 1019.7
20260506084752 50 122 0.0 0.0 0.00 0.00 0.00 94 1019.7
20260506084250 50 122 0.0 0.0 0.00 0.00 0.00 94 1019.6
20260506083751 50 122 0.0 0.0 0.00 0.00 0.00 94 1019.6
20260506083529 51 122 0.0 0.0 0.00 0.00 0.00 94 1019.6
20260506083250 51 122 0.0 0.0 0.00 0.00 0.00 94 1019.6
20260506082751 50 122 0.0 0.0 0.00 0.00 0.00 94 1019.6
20260506082252 51 122 0.0 0.0 0.00 0.00 0.00 94 1019.4
20260506081750 51 122 0.0 0.0 0.00 0.00 0.00 94 1019.5
20260506081504 51 122 0.0 0.0 0.00 0.00 0.00 94 1019.6
20260506080750 51 122 0.0 0.0 0.00 0.00 0.00 94 1019.5
20260506080252 51 122 0.0 0.0 0.00 0.00 0.00 94 1019.4
20260506073246 51 122 0.0 0.0 0.00 0.00 0.00 93 1019.3
20260506072745 51 122 0.0 0.0 0.00 0.00 0.00 93 1019.3
20260506072519 51 122 0.0 0.0 0.00 0.00 0.00 93 1019.3
20260506072242 51 122 0.0 0.0 0.00 0.00 0.00 93 1019.3
20260506071741 51 122 0.0 0.0 0.00 0.00 0.00 93 1019.3
20260506071449 51 122 0.0 0.0 0.00 0.00 0.00 93 1019.3
20260506070953 52 122 0.0 0.0 0.00 0.00 0.00 93 1019.2
20260506070235 52 122 0.0 0.9 0.00 0.00 0.00 93 1019.2
20260506062439 52 122 0.0 0.0 0.00 0.00 0.00 93 1019.0
20260506061942 52 122 0.0 0.0 0.00 0.00 0.00 92 1018.9
20260506061230 53 122 0.0 0.0 0.00 0.00 0.00 92 1018.9
20260506060733 53 122 0.0 0.0 0.00 0.00 0.00 92 1018.8
20260506060224 53 122 0.0 0.0 0.00 0.00 0.00 92 1018.8
20260506051219 54 122 0.0 0.0 0.00 0.00 0.00 91 1018.6
20260506050719 54 122 0.0 0.0 0.00 0.00 0.00 90 1018.5
20260506050220 54 122 0.0 0.0 0.00 0.00 0.00 90 1018.4
20260506044706 55 122 0.0 0.0 0.00 0.00 0.00 89 1018.4
20260506044205 55 122 0.0 0.0 0.00 0.00 0.00 89 1018.3
20260506043703 55 122 0.0 0.0 0.00 0.00 0.00 89 1018.3
20260506043414 55 122 0.0 0.0 0.00 0.00 0.00 89 1018.3
20260506042701 56 122 0.0 0.0 0.00 0.00 0.00 88 1018.4
20260506042201 56 122 0.0 0.0 0.00 0.00 0.00 88 1018.3
20260506041937 56 122 0.0 0.0 0.00 0.00 0.00 88 1018.2
20260506041702 56 122 0.0 0.0 0.00 0.00 0.00 88 1018.2
20260506041221 56 122 0.0 0.0 0.00 0.00 0.00 87 1018.2
20260506041211 56 122 0.0 0.0 0.00 0.00 0.00 87 1018.2
20260506040914 56 122 0.0 0.0 0.00 0.00 0.00 87 1018.2
20260506040200 57 122 0.0 0.0 0.00 0.00 0.00 87 1018.3
20260506035658 57 122 0.0 0.0 0.00 0.00 0.00 86 1018.2
20260506035158 57 122 0.0 0.0 0.00 0.00 0.00 86 1018.3
20260506034657 58 122 0.0 0.0 0.00 0.00 0.00 86 1018.2
20260506034434 58 122 0.0 0.0 0.00 0.00 0.00 85 1018.2
20260506034156 58 122 0.0 0.0 0.00 0.00 0.00 85 1018.2
20260506033656 58 122 0.0 0.0 0.00 0.00 0.00 85 1018.0
20260506033156 58 122 0.0 0.0 0.00 0.00 0.00 84 1018.0
20260506032657 58 122 0.0 0.0 0.00 0.00 0.00 84 1017.9
20260506032211 59 122 0.0 0.0 0.00 0.00 0.00 83 1017.8
20260506032201 59 122 0.0 0.0 0.00 0.00 0.00 84 1017.9
20260506031908 59 122 0.0 0.0 0.00 0.00 0.00 83 1017.8
20260506031401 59 122 0.0 0.0 0.00 0.00 0.00 83 1017.8
20260506030650 59 122 0.0 0.0 0.00 0.00 0.00 82 1017.8
20260506030147 59 122 0.0 0.0 0.00 0.00 0.00 82 1017.8
20260506025644 60 122 0.0 0.0 0.00 0.00 0.00 82 1017.8
20260506025142 60 122 0.0 0.0 0.00 0.00 0.00 81 1017.8
20260506024642 60 122 0.0 0.0 0.00 0.00 0.00 81 1017.7
20260506024143 60 122 0.0 0.0 0.00 0.00 0.00 80 1017.6
20260506023640 60 122 0.0 0.0 0.00 0.00 0.00 81 1017.7
20260506023138 60 122 0.0 0.0 0.00 0.00 0.00 80 1017.7
20260506022638 60 122 0.0 0.0 0.00 0.00 0.00 80 1017.6
20260506022137 60 122 0.0 0.0 0.00 0.00 0.00 80 1017.6
20260506021636 60 122 0.0 0.0 0.00 0.00 0.00 79 1017.6
20260506021411 60 122 0.0 0.0 0.00 0.00 0.00 79 1017.6
20260506021135 60 122 0.0 0.0 0.00 0.00 0.00 79 1017.6
20260506020633 61 122 0.0 0.0 0.00 0.00 0.00 79 1017.6
20260506020132 61 122 0.0 0.0 0.00 0.00 0.00 78 1017.6
20260506015632 61 122 0.0 0.0 0.00 0.00 0.00 79 1017.7
20260506015343 61 122 0.0 1.7 0.00 0.00 0.00 77 1017.6
20260506014631 61 122 0.0 1.7 0.00 0.00 0.00 78 1017.6
20260506014130 61 122 0.0 1.7 0.00 0.00 0.00 78 1017.6
20260506013629 61 122 0.0 1.7 0.00 0.00 0.00 78 1017.6
20260506013345 61 122 0.0 0.0 0.00 0.00 0.00 77 1017.6